sat.trackr.live / text

‹ back to catalog

BANDWAGON-4 OBJECT P

NORAD 66306 · 2025-248P

PAYLOAD ACTIVE UNKNOWN

§ Identity

Operator
Country
TBD
Launch date
2025-11-02
Launch site
AFETR
Launch vehicle
Mass (kg)
RCS (m²)

External: N2YO · Heavens-Above · Gunter

§ Orbital elements

Epoch: 2026-09-18T04:57:38.235456Z

Period
94.11 min
Inclination
45.4029°
Eccentricity
0.0011303
Mean motion
15.30046858 rev/d
Perigee alt
467.9 km
Apogee alt
483.4 km
Semi-major
6,853.8 km
B*
4.3182e-4
RAAN
328.6928°
Arg perigee
248.0726°
Mean anomaly
111.8963°
Rev number
4,883

§ Raw data

BANDWAGON-4 OBJECT P1 66306U 25248P   26261.20669254  .00012528  00000+0  43182-3 0  99912 66306  45.4029 328.6928 0011303 248.0726 111.8963 15.30046858 48834

JSON: /api/v1/satellites/66306 · /tle

For live sub-satellite position, see the globe view (requires WebGL).

§ Visibility from observer

Set your observer location to see the next 7 days of passes ≥ 10°. The values pass through the URL so the page stays shareable.

No JS? Fill the form by hand. The geolocation button needs JavaScript.